Location: Unspecified
(0.0000°N, 0.0000°E)
Time: 15:20:39
(UTC+00:00)

Vela 4A - Pass Details

Date: 02 December 2021
Orbit: 58523 x 164212 km, 32.1° (Epoch: 09 January)

Event Time Altitude Azimuth Distance (km) Brightness Sun altitude
Rises 20:45:30 0° 59° (ENE) 150,188 ? -40.2°
Reaches altitude 10° 21:39:47 10° 58° (ENE) 147,383 ? -51.6°
Maximum altitude 03:33:35 56° 0° (N) 130,498 ? -31.2°
Drops below altitude 10° 09:43:26 10° 302° (WNW) 118,059 ? 52.2°
Sets 10:43:18 0° 301° (WNW) 116,201 ? 62.7°
